Weather Roundup
Issued by NWS

Home | Current Version | Previous Version | Graphics & Text | Print | Product List | Glossary Off
Versions: 1 2 3 4 5 6 7 8 9 10 11 12 13 14 15 16 17 18 19 20 21 22 23 24 25 26 27 28 29 30 31 32 33 34 35 36 37 38 39 40 41 42 43 44 45 46 47 48 49 50

953
NZUS93 KARX 300410
HRRWXR

CURRENT HOURLY OBSERVATIONS ACROSS
MUCH OF THE UPPER MISSISSIPPI VALLEY
NATIONAL WEATHER SERVICE LA CROSSE WI
1100 PM CDT SUN MAY 29 2016


...SOUTHEAST MINNESOTA...


CITY           SKY/WX    TMP DP  RH WIND       PRES   REMARKS
ROCHESTER      CLEAR     64  60  87 W5        30.02R
ROCHESTER/MAYO FAIR      68  58  69 W6        30.01R
WINONA         PTCLDY    63  61  94 CALM      29.98S
AUSTIN         CLEAR     61  55  82 CALM      30.01R
ALBERT LEA     CLEAR     63  55  77 CALM      30.02R
DODGE CENTER   CLEAR     61  55  82 W5        30.02R
PRESTON        CLEAR     64  58  81 SW5       30.02R
OWATONNA       CLEAR     63  57  82 CALM      30.02R
FARIBAULT      CLEAR     61  59  94 CALM      30.01R
$$

...ELSEWHERE IN MINNESOTA...


CITY           SKY/WX    TMP DP  RH WIND       PRES   REMARKS
MINNEAPOLIS    CLEAR     68  57  68 W3        29.98R
INTNL FALLS    CLEAR     50  50 100 CALM      29.89S
DULUTH         CLEAR     54  50  86 W9        29.93S
RED WING       CLEAR     61  57  88 CALM      29.97R
REDWOOD FALLS  CLEAR     64  48  56 E3        29.99R
MANKATO        CLEAR     66  57  72 CALM      30.01R
WORTHINGTON    CLEAR     65  51  60 SW5       30.05R
FAIRMONT       CLEAR     64  46  52 W6        30.02S
$$

...SOUTHWEST WISCONSIN...


CITY           SKY/WX    TMP DP  RH WIND       PRES   REMARKS
LA CROSSE      PTCLDY    65  60  84 SE5       29.98R
PRAIRIE DU CHI CLEAR     63  58  83 CALM      30.00R
BOSCOBEL       CLEAR     63  60  90 CALM      30.00R
LONE ROCK      CLEAR     62  60  93 CALM      30.01R
PLATTEVILLE    PTCLDY    67  60  78 SW5       30.02R
FORT MC COY    CLEAR     58  56  92 CALM      30.00R
CAMP DOUGLAS   CLEAR     56  56 100 CALM      29.98R
MAUSTON-NEW LI CLEAR     61  59  91 CALM      29.98R
VIROQUA        FAIR      64  58  82 SW3       30.02R
WIS DELLS      PTCLDY    64  59  84 SW6       29.99R
$$

...ELSEWHERE IN WISCONSIN...


CITY           SKY/WX    TMP DP  RH WIND       PRES   REMARKS
MILWAUKEE      PTCLDY    70  58  65 SW8       29.97S
MADISON        MOCLDY    65  61  87 CALM      29.99R
GREEN BAY      CLEAR     67  58  72 SW6       29.94R
EAU CLAIRE     MOCLDY    62  57  83 SW5       29.96R
BLACK RVR FLS  MOCLDY    58  58 100 SW3       29.97R
MEDFORD        MOCLDY    62  57  83 W3        29.97R
WAUSAU         CLEAR     61  56  83 CALM      29.94R
WIS RAPIDS     CLEAR     57  54  89 SW3       29.98R
MARSHFIELD     CLEAR     62  55  77 W5        29.97R
RICE LAKE      CLEAR     61  57  88 CALM      29.98R
$$

...NORTHEAST IOWA...


CITY           SKY/WX    TMP DP  RH WIND       PRES   REMARKS
WATERLOO       CLEAR     66  60  81 CALM      30.00S
DUBUQUE        PTCLDY    63  58  83 SW3       30.02R
DECORAH        CLEAR     64  59  82 CALM      30.01R
MASON CITY     CLEAR     61  53  75 W7        30.04R
CHARLES CITY   CLEAR     66  57  72 W8        30.02S
OELWEIN        PTCLDY    68  59  73 SW6       30.02S
$$

...ELSEWHERE IN IOWA...


CITY           SKY/WX    TMP DP  RH WIND       PRES   REMARKS
DES MOINES     CLOUDY    71  57  61 S6        30.02R
IOWA CITY      CLEAR     68  58  70 CALM      30.03R
FORT DODGE     CLEAR     63  48  59 CALM      30.04S
MARSHALLTOWN   PTCLDY    69  58  67 NW5       30.01R
CEDAR RAPIDS   CLEAR     67  60  78 SW5       30.01R
$$

...NORTHERN ILLINOIS...


CITY           SKY/WX    TMP DP  RH WIND       PRES   REMARKS
CHICAGO-OHARE  PTCLDY    70  58  65 W6        30.00R
CHICAGO-MIDWAY PTCLDY    73  57  57 W6        30.00R
MOLINE         CLEAR     71  56  58 SW7       30.02R
ROCKFORD       CLEAR     69  58  67 SW3       30.02S
PEORIA         CLEAR     68  57  68 CALM      30.04R
$$

NOTE: "FAIR" INDICATES FEW OR NO CLOUDS BELOW 12,000 FEET WITH NO
SIGNIFICANT WEATHER AND/OR OBSTRUCTIONS TO VISIBILITY. WIND
SPEEDS ARE IN MILES-PER-HOUR.




USA.gov is the U.S. government's official web portal to all federal, state and local government web resources and services.